Back to catalog

STARLINK-32429

AliveCommunicationsVLEO
NORAD 61682·PAYLOAD·🇺🇸 United States

Launched Oct 26, 2024 from Cape Canaveral Space Force Station

Loading…

Next Passes (next 24 hours)

TLE

FreshSource: CelesTrak SupGP

Epoch: Sep 14, 2026, 14:29 UTC

1 61682C 24193X   26257.60395833  .00033869  00000+0  10892-2 0  2578
2 61682  53.1563 292.4451 0001104  81.5774 339.1318 15.31684470    11

Track STARLINK-32429 in real time with AllMySat

Download on the App Store